Location: *
(51.8167°N, 12.5000°E)
Time: 21:27:09
(UTC+00:00)

CZ-2C R/B - Pass Details

Date: 16 September 2019
Orbit: 785 x 870 km, 98.3° (Epoch: 17 October)

Event Time Altitude Azimuth Distance (km) Brightness Sun altitude
Rises 21:05:52 0° 11° (N) 3,415 6.4 -30.1°
Reaches altitude 10° 21:08:17 10° 6° (N) 2,487 5.7 -30.3°
Maximum altitude 21:13:34 48° 294° (WNW) 1,122 3.5 -30.8°
Enters shadow 21:14:46 41° 258° (WSW) 1,232 3.6 -30.9°
